Flag for Canada Weather past 2 weeks in Winnipeg, Manitoba, Canada

Now
41 °F

Overcast.


Feels Like: 36 °F
Forecast: 40 / 52 °F
Wind: 8 mph from Northwest

Location: Winnipeg Int. Airportman.

Current Time: Oct 20, 2014 at 8:02:15 AM

Latest Report: Oct 20, 2014 at 7:00 AM


Visibility: 15 mi

Pressure: 30.07 "Hg

Humidity: 87%

Dew point: 37 °F

Location of WinnipegLocation

Historic Weather in Winnipeg — Graph

°F

Winnipeg temperature yesterday

Maximum temperature yesterday: 64 °F (at 5:00 PM)
Minimum temperature yesterday: 37 °F (at 8:00 AM)
Average temperature yesterday: 48 °F

Past Weeks' High & Low Weather Summary

 TemperatureHumidityPressure
High70 °F (Oct 15, 3:00 PM)100% (Oct 8, 6:00 AM)30.33 "Hg (Oct 8, 6:00 AM)
Low25 °F (Oct 10, 1:00 AM)33% (Oct 15, 4:00 PM)29.29 "Hg (Oct 6, 9:00 AM)
Average44 °F71%29.86 "Hg
* Reported Oct 5 6:00 AM — Oct 20 6:00 AM, Winnipeg, Weather by CustomWeather, © 2014

Note: Actual official high and low records may vary slightly from our data, if they occured in-between our weather recording intervals... More about our weather records

Advertising

Winnipeg weather history for previous 24 hours

 ConditionsComfort  
Time TempWeatherWind HumidityBarometerVisibility
6:00 AM
Oct 20
43 °FOvercast.6 mph87%30.06 "Hg15 mi
5:00 AM43 °FOvercast.6 mph87%30.06 "Hg15 mi
4:00 AM39 °FPassing clouds.8 mph93%30.04 "Hg15 mi
3:49 AM36 °FPassing clouds.8 mph93%30.04 "Hg15 mi
3:00 AM36 °FPassing clouds.8 mph93%30.03 "Hg15 mi
2:00 AM34 °FClear.8 mph100%30.00 "Hg15 mi
1:00 AM39 °FClear.5 mph93%29.98 "Hg15 mi
12:00 AM41 °FClear.2 mph93%29.97 "Hg15 mi
10:00 PM
Oct 19
39 °FClear.7 mph87%29.93 "Hg15 mi
9:00 PM43 °FClear.8 mph81%29.92 "Hg15 mi
8:00 PM48 °FClear.8 mph71%29.90 "Hg15 mi
7:00 PM55 °FPassing clouds.15 mph59%29.88 "Hg15 mi
6:00 PM61 °FPassing clouds.18 mph48%29.85 "Hg15 mi
5:00 PM64 °FPassing clouds.16 mph46%29.83 "Hg15 mi
4:00 PM63 °FPassing clouds.16 mph49%29.83 "Hg15 mi
3:00 PM61 °FPassing clouds.17 mph52%29.82 "Hg15 mi
2:00 PM61 °FPassing clouds.15 mph55%29.81 "Hg15 mi
1:00 PM59 °FSunny.18 mph55%29.80 "Hg15 mi
12:00 PM55 °FSunny.20 mph63%29.80 "Hg15 mi
11:00 AM52 °FSunny.15 mph72%29.79 "Hg15 mi
10:00 AM46 °FSunny.14 mph82%29.78 "Hg15 mi
9:00 AM39 °FSunny.8 mph93%29.76 "Hg15 mi
8:00 AM37 °FPassing clouds.6 mph93%29.75 "Hg15 mi
Weather by CustomWeather, © 2014

See weather overviewHow to use our weather pages